McCall, ID

1:13 AM MDT on April 20, 2018 (GMT -0600)
McCall

Weather History for KMYL - December, 2012

Change the Weather History Date:

Saturday, December 1, 2012

  Actual Average Record
Temperature  
Mean Temperature 39 °F 22 °F  
Max Temperature 41 °F 30 °F 48 °F (1969)
Min Temperature 36 °F 14 °F -2 °F (2015)
Degree Days  
Heating Degree Days 26 43  
Month to date heating degree days 26 43  
Since 1 July heating degree days 2078 2681  
Cooling Degree Days 0 0  
Month to date cooling degree days 0 0  
Year to date cooling degree days 172 25  
Moisture  
Dew Point 35 °F    
Average Humidity 89    
Maximum Humidity 92    
Minimum Humidity 85    
Precipitation  
Precipitation 0.49 in 0.06 in 1.05 in (1917)
Month to date precipitation 0.49 0.06  
Year to date precipitation 27.32 18.10  
Sea Level Pressure  
Sea Level Pressure 29.77 in    
Wind  
Wind Speed 10 mph (SSE)    
Max Wind Speed 22 mph    
Max Gust Speed 28 mph    
Visibility 9 miles    
Events Rain    
T = Trace of Precipitation, MM = Missing Value Source: NWS Daily Summary

Daily Weather History Graph

Daily Weather History Graph

Search for Another Location

Airport or City:

Astronomy

Dec. 01, 2012 Rise Set
Actual Time 8:02 AM MST 5:04 PM MST
Civil Twilight 7:29 AM MST 5:37 PM MST
Nautical Twilight 6:53 AM MST 6:14 PM MST
Astronomical Twilight 6:17 AM MST 6:49 PM MST
Moon 8:01 PM MST (12/1) 10:16 AM MST (12/1)
Length of Visible Light 10h 07m
Length of Day
9h 01m
Waning Gibbous, 91% of the Moon is Illuminated
Dec 1
Waning Gibbous
Dec 6
Last Quarter
Dec 13
New
Dec 19
First Quarter
Dec 28
Full

Hourly Weather History & Observations

Time (MST) Temp. Windchill Dew Point Humidity Pressure Visibility Wind Dir Wind Speed Gust Speed Precip Events Conditions
12:51 AM 39.0 °F 33.4 °F 35.1 °F 86% 29.80 in 10.0 mi East 8.1 mph - 0.01 in   Overcast
1:37 AM 37.4 °F 30.3 °F 33.8 °F 87% 29.77 in 10.0 mi SSE 10.4 mph - 0.00 in   Overcast
1:51 AM 37.0 °F 30.4 °F 34.0 °F 89% 29.80 in 10.0 mi South 9.2 mph - 0.00 in   Overcast
2:10 AM 37.4 °F 29.8 °F 33.8 °F 87% 29.78 in 10.0 mi South 11.5 mph - 0.01 in Rain Light Rain
2:51 AM 37.0 °F 29.8 °F 34.0 °F 89% 29.81 in 10.0 mi SSE 10.4 mph - 0.04 in Rain Light Rain
2:59 AM 37.4 °F 29.8 °F 33.8 °F 87% 29.79 in 10.0 mi SSE 11.5 mph 18.4 mph 0.00 in Rain Light Rain
3:51 AM 37.0 °F 29.8 °F 34.0 °F 89% 29.83 in 10.0 mi SE 10.4 mph - 0.00 in   Overcast
4:51 AM 37.0 °F 34.5 °F 34.0 °F 89% 29.81 in 10.0 mi SSE 3.5 mph - 0.00 in Rain Light Rain
5:51 AM 37.9 °F 32.7 °F 33.1 °F 83% 29.80 in 10.0 mi ESE 6.9 mph - 0.00 in   Mostly Cloudy
6:51 AM 37.9 °F 31.5 °F 33.1 °F 83% 29.80 in 10.0 mi SSE 9.2 mph - 0.00 in Rain Light Rain
7:13 AM 37.4 °F 29.8 °F 33.8 °F 87% 29.78 in 7.0 mi SSE 11.5 mph 19.6 mph 0.01 in Rain Light Rain
7:51 AM 36.0 °F 27.1 °F 34.0 °F 93% 29.81 in 6.0 mi SSE 13.8 mph - 0.05 in Rain Rain
8:51 AM 37.0 °F 28.9 °F 35.1 °F 93% 29.80 in 9.0 mi SE 12.7 mph - 0.06 in Rain Light Rain
9:51 AM 39.0 °F 31.8 °F 36.0 °F 89% 29.79 in 10.0 mi ESE 11.5 mph 20.7 mph 0.03 in Rain Light Rain
10:51 AM 39.0 °F 30.6 °F 36.0 °F 89% 29.81 in 10.0 mi SSE 15.0 mph 27.6 mph 0.00 in Rain Light Rain
11:23 AM 39.2 °F 29.8 °F 35.6 °F 87% 29.82 in 9.0 mi South 18.4 mph - 0.01 in Rain Light Rain
11:51 AM 39.0 °F 31.8 °F 36.0 °F 89% 29.84 in 10.0 mi South 11.5 mph - 0.02 in Rain Light Rain
12:51 PM 39.0 °F 31.4 °F 36.0 °F 89% 29.84 in 10.0 mi SSE 12.7 mph 19.6 mph 0.00 in Rain Light Rain
1:51 PM 37.9 °F 30.0 °F 35.1 °F 89% 29.84 in 10.0 mi SE 12.7 mph - 0.00 in   Overcast
2:51 PM 39.0 °F 32.8 °F 35.1 °F 86% 29.82 in 10.0 mi SE 9.2 mph - N/A   Overcast
3:51 PM 37.9 °F 32.1 °F 35.1 °F 89% 29.82 in 10.0 mi SE 8.1 mph - 0.01 in Rain Light Rain
4:51 PM 39.9 °F 32.9 °F 36.0 °F 86% 29.81 in 10.0 mi SE 11.5 mph - 0.00 in   Overcast
5:12 PM 39.2 °F 32.5 °F 35.6 °F 87% 29.79 in 10.0 mi SE 10.4 mph - 0.00 in   Overcast
5:31 PM 37.4 °F 30.3 °F 35.6 °F 93% 29.80 in 7.0 mi SSE 10.4 mph - 0.03 in Rain Light Rain
5:51 PM 37.0 °F 33.3 °F 35.1 °F 93% 29.81 in 6.0 mi SSE 4.6 mph - 0.04 in Rain Light Rain
6:43 PM 37.4 °F 32.1 °F 35.6 °F 93% 29.77 in 10.0 mi SE 6.9 mph - 0.01 in Rain Light Rain
6:51 PM 37.9 °F 31.5 °F 36.0 °F 93% 29.78 in 10.0 mi SE 9.2 mph - 0.01 in Rain Light Rain
7:51 PM 39.0 °F 34.0 °F 36.0 °F 89% 29.76 in 10.0 mi SSE 6.9 mph - 0.01 in Rain Light Rain
8:02 PM 39.2 °F 32.5 °F 37.4 °F 93% 29.73 in 5.0 mi SSE 10.4 mph - 0.02 in Rain Rain
8:29 PM 37.4 °F 32.8 °F 37.4 °F 100% 29.71 in 10.0 mi SE 5.8 mph - 0.03 in Rain Light Rain
8:51 PM 39.9 °F 32.5 °F 36.0 °F 86% 29.72 in 10.0 mi SSE 12.7 mph 18.4 mph 0.03 in Rain Light Rain
9:21 PM 39.2 °F 31.2 °F 37.4 °F 93% 29.70 in 10.0 mi SE 13.8 mph - 0.03 in   Overcast
9:31 PM 39.2 °F 32.0 °F 35.6 °F 87% 29.70 in 10.0 mi SSE 11.5 mph - 0.03 in   Overcast
9:51 PM 39.9 °F 32.1 °F 36.0 °F 86% 29.69 in 10.0 mi SE 13.8 mph - 0.03 in Rain Light Rain
9:59 PM 39.2 °F 32.0 °F 35.6 °F 87% 29.68 in 10.0 mi SE 11.5 mph - 0.00 in Rain Light Rain
10:32 PM 39.2 °F 34.2 °F 37.4 °F 93% 29.68 in 6.0 mi SSE 6.9 mph - 0.04 in Rain Rain
10:47 PM 39.2 °F 33.0 °F 37.4 °F 93% 29.67 in 10.0 mi SSE 9.2 mph - 0.05 in Rain Light Rain
10:51 PM 39.9 °F 31.8 °F 37.0 °F 89% 29.68 in 10.0 mi SSE 15.0 mph 18.4 mph 0.05 in Rain Light Rain
11:18 PM 39.2 °F 33.6 °F 37.4 °F 93% 29.66 in 10.0 mi SE 8.1 mph - 0.01 in Rain Light Rain
11:51 PM 39.0 °F 33.4 °F 37.9 °F 96% 29.64 in 5.0 mi SW 8.1 mph - 0.09 in Rain Rain